Torna al catalogo

SL-8 R/B

AttivoLEO
NORAD 6853·ROCKET BODY·🇷🇺 Russia

Lanciato Oct 2, 1973 da Plesetsk Cosmodrome

Loading…

Prossimi Passaggi (prossime 24 ore)

TLE

AggiornatoSource: Space-Track

Epoca: Sep 14, 2026, 12:16 UTC

1 06853U 73069J   26257.51162535  .00000053  00000-0  57941-3 0  9994
2 06853  74.0033  82.6752 0085722  91.1321 298.6944 12.29023288375703

Traccia SL-8 R/B in tempo reale con AllMySat

Download on the App Store